This is the latest recevied weather packets stored in our database for station/object K7NDG. If no packets are shown the sender has not sent any weather packets the latest 1 day(s).
| Time | Temp. | Humidity | Pressure | Rain* | Wind** | Luminosity | Snow |
|---|---|---|---|---|---|---|---|
| 1778028578 | 17.22° C | 68% | 1016.5 hPa | 0 mm | 0 m/s | 111 W/m² | - |
| 1778028276 | 17.22° C | 68% | 1016.5 hPa | 0 mm | 0 m/s | 139 W/m² | - |
| 1778027972 | 17.78° C | 68% | 1016.6 hPa | 0 mm | 0.45 m/s, 224° | 146 W/m² | - |
| 1778027668 | 17.78° C | 67% | 1016.4 hPa | 0 mm | 0 m/s | 166 W/m² | - |
| 1778027365 | 17.78° C | 66% | 1016.5 hPa | 0 mm | 0 m/s | 168 W/m² | - |
| 1778027061 | 17.78° C | 67% | 1016.6 hPa | 0 mm | 0 m/s | 146 W/m² | - |
| 1778026757 | 17.78° C | 67% | 1016.6 hPa | 0 mm | 0 m/s | 213 W/m² | - |
| 1778026454 | 17.78° C | 67% | 1016.8 hPa | 0 mm | 1.34 m/s, 265° | 157 W/m² | - |
| 1778026152 | 17.78° C | 65% | 1016.5 hPa | 0 mm | 0 m/s | 148 W/m² | - |
| 1778025849 | 18.33° C | 67% | 1016.8 hPa | 0 mm | 0.89 m/s, 291° | 207 W/m² | - |
| 1778025546 | 17.78° C | 67% | 1016.7 hPa | 0 mm | 0 m/s | 286 W/m² | - |
| 1778025244 | 17.78° C | 67% | 1016.8 hPa | 0 mm | 0.89 m/s, 216° | 289 W/m² | - |
| 1778024940 | 17.78° C | 66% | 1016.6 hPa | 0 mm | 0.45 m/s, 323° | 235 W/m² | - |
| 1778024638 | 17.78° C | 68% | 1016.8 hPa | 0 mm | 1.34 m/s, 222° | 223 W/m² | - |
| 1778024334 | 17.78° C | 68% | 1016.8 hPa | 0 mm | 1.34 m/s, 253° | 267 W/m² | - |
| 1778024032 | 17.78° C | 67% | 1016.8 hPa | 0 mm | 0.89 m/s, 211° | 206 W/m² | - |
| 1778023729 | 18.33° C | 67% | 1016.9 hPa | 0 mm | 0.45 m/s, 221° | 284 W/m² | - |
| 1778023428 | 17.78° C | 68% | 1016.8 hPa | 0 mm | 1.34 m/s, 12° | 252 W/m² | - |
| 1778023124 | 18.33° C | 68% | 1017 hPa | 0 mm | 0 m/s | 206 W/m² | - |
| 1778022821 | 18.33° C | 69% | 1017 hPa | 0 mm | 1.34 m/s, 261° | 224 W/m² | - |
| 1778022519 | 17.78° C | 69% | 1016.9 hPa | 0 mm | 0.45 m/s, 282° | 236 W/m² | - |
| 1778022216 | 17.78° C | 69% | 1017 hPa | 0 mm | 0 m/s | 262 W/m² | - |
| 1778021913 | 17.78° C | 69% | 1016.9 hPa | 0 mm | 0.89 m/s, 258° | 257 W/m² | - |
| 1778021610 | 17.78° C | 69% | 1017 hPa | 0 mm | 0.45 m/s, 198° | 232 W/m² | - |
| 1778021305 | 17.78° C | 70% | 1017.1 hPa | 0 mm | 0.45 m/s, 249° | 231 W/m² | - |
* Rain latest hour (hover to see other rain measurements)
** Current wind speed in m/s (hover to see current wind gust speed)